Weather Service Report


237 
ASUS46 KPQR 291110
RWROR 

OREGON REGIONAL WEATHER ROUNDUP
NATIONAL WEATHER SERVICE PORTLAND OR
400 AM PDT WED JUN 29 2016

NOTE: "FAIR" INDICATES FEW OR NO CLOUDS BELOW 12,000 FEET WITH
NO SIGNIFICANT WEATHER AND/OR OBSTRUCTIONS TO VISIBILITY.

ORZ001>013-291200-
NORTHWEST OREGON

  
CITY           SKY/WX    TMP DP  RH WIND       PRES   REMARKS
ASTORIA        CLOUDY    57  54  89 NW7       30.22S                  
NEWPORT        CLOUDY    55  52  88 N9G16     30.24S                  
PORTLAND       CLOUDY    59  52  77 NW8       30.19S                  
VANCOUVER WA   CLOUDY    58  52  80 N8        30.19R                  
SCAPPOOSE      CLOUDY    56  51  84 CALM      30.19R                  
HILLSBORO      CLEAR     53  49  86 CALM      30.19R                  
AURORA         CLEAR     54  50  86 N3        30.20R                  
MCMINNVILLE    CLEAR     52  49  89 W3        30.20R                  
SALEM          CLEAR     54  50  86 N7        30.18R                  
CORVALLIS        N/A     54  48  82 NW8       30.18S                  
EUGENE         CLEAR     51  48  89 CALM      30.18R                  
$$

ORZ021-028-291200-
SOUTHWEST OREGON

  
CITY           SKY/WX    TMP DP  RH WIND       PRES   REMARKS
NORTH BEND     CLOUDY    57  54  88 N14       30.21S                  
BROOKINGS      CLOUDY    51  51 100 CALM      30.08F FOG              
ROSEBURG       CLEAR     58  47  66 N3        30.16R                  
SEXTON SUMMIT  CLEAR     56  42  59 N15G22    30.17S                  
MEDFORD        CLEAR     63  51  65 CALM      30.10S                  
$$

ORZ014>016-041-291200-
COLUMBIA GORGE

  
CITY           SKY/WX    TMP DP  RH WIND       PRES   REMARKS
TROUTDALE      CLOUDY    60  53  77 W5        30.19R                  
$$

ORZ029>031-041-044-049-050-061>064-502-503-505>511-291200-
EASTERN OREGON

  
CITY           SKY/WX    TMP DP  RH WIND       PRES   REMARKS
REDMOND        CLEAR     52  38  58 SW3       30.14S                  
BEND           CLEAR     55  46  71 CALM      30.15S                  
PRINEVILLE     CLEAR     52  34  50 CALM      30.15S                  
KLAMATH FALLS  CLEAR     54  51  90 CALM      30.15F                  
LAKEVIEW       CLEAR     59  45  58 N10       30.20S                  
HERMISTON      CLEAR     72  44  36 SW12      29.99S                  
PENDLETON      CLEAR     63  45  51 CALM      30.03S                  
JOHN DAY       CLEAR     63  40  43 SW6       30.14S                  
MEACHAM        CLEAR     49  46  90 CALM      30.15S                  
LA GRANDE      CLEAR     66  45  45 N13       30.06S                  
BAKER CITY     CLEAR     54  46  74 SE3       30.09S                  
BURNS          CLEAR     62  44  51 W9        30.11S                  
ROME             N/A     58  32  37 SE5       30.07R                  
ONTARIO        CLEAR     74  46  36 NW5       29.96S                  
$$
  

Return to Home page


Western Regional Climate Center, wrcc@dri.edu